Time,TemperatureF,DewpointF,PressureIn,WindDirection,WindDirectionDegrees,WindSpeedMPH,WindSpeedGustMPH,Humidity,HourlyPrecipIn,Conditions,Clouds,dailyrainin,SoftwareType,DateUTC
2013-03-26 00:08:00,34.9,23.0,30.12,West,273,0.0,6.0,63,0.00,,,0.00,weatherlink.com 1.10,2013-03-26 04:08:00,
2013-03-26 00:23:00,34.7,24.0,30.12,ESE,113,0.0,6.0,64,0.00,,,0.00,weatherlink.com 1.10,2013-03-26 04:23:00,
2013-03-26 00:38:00,34.2,23.0,30.11,West,267,2.0,9.0,65,0.00,,,0.00,weatherlink.com 1.10,2013-03-26 04:38:00,
2013-03-26 00:53:00,33.8,24.0,30.11,NNE,23,0.0,3.0,67,0.00,,,0.00,weatherlink.com 1.10,2013-03-26 04:53:00,
2013-03-26 01:08:00,33.5,24.0,30.12,WSW,249,2.0,5.0,68,0.00,,,0.00,weatherlink.com 1.10,2013-03-26 05:08:00,
2013-03-26 01:23:00,33.4,24.0,30.12,NW,316,1.0,5.0,69,0.00,,,0.00,weatherlink.com 1.10,2013-03-26 05:23:00,
2013-03-26 01:38:00,33.1,24.0,30.12,NE,40,0.0,5.0,70,0.00,,,0.00,weatherlink.com 1.10,2013-03-26 05:38:00,
2013-03-26 01:53:00,33.1,25.0,30.12,NNE,15,0.0,4.0,71,0.00,,,0.00,weatherlink.com 1.10,2013-03-26 05:53:00,
2013-03-26 02:08:00,33.5,25.0,30.12,NNE,13,0.0,5.0,70,0.00,,,0.00,weatherlink.com 1.10,2013-03-26 06:08:00,
2013-03-26 02:23:00,33.7,25.0,30.12,NNE,12,1.0,7.0,70,0.00,,,0.00,weatherlink.com 1.10,2013-03-26 06:23:00,
2013-03-26 02:38:00,33.3,25.0,30.12,ENE,57,0.0,4.0,71,0.00,,,0.00,weatherlink.com 1.10,2013-03-26 06:38:00,
2013-03-26 02:53:00,33.0,25.0,30.11,NE,34,0.0,4.0,72,0.00,,,0.00,weatherlink.com 1.10,2013-03-26 06:53:00,
2013-03-26 03:08:00,33.2,25.0,30.11,NNW,330,0.0,7.0,72,0.00,,,0.00,weatherlink.com 1.10,2013-03-26 07:08:00,
2013-03-26 03:24:00,33.1,25.0,30.10,West,270,0.0,2.0,72,0.00,,,0.00,weatherlink.com 1.10,2013-03-26 07:24:00,
2013-03-26 03:39:00,32.8,25.0,30.10,NW,308,1.0,3.0,73,0.00,,,0.00,weatherlink.com 1.10,2013-03-26 07:39:00,
2013-03-26 03:54:00,32.7,25.0,30.10,NW,323,0.0,4.0,74,0.00,,,0.00,weatherlink.com 1.10,2013-03-26 07:54:00,
2013-03-26 04:09:00,32.9,25.0,30.09,West,263,0.0,4.0,74,0.00,,,0.00,weatherlink.com 1.10,2013-03-26 08:09:00,
2013-03-26 04:24:00,32.8,26.0,30.09,WSW,257,0.0,3.0,75,0.00,,,0.00,weatherlink.com 1.10,2013-03-26 08:24:00,
2013-03-26 04:39:00,33.1,26.0,30.09,WSW,248,1.0,5.0,75,0.00,,,0.00,weatherlink.com 1.10,2013-03-26 08:39:00,
2013-03-26 04:54:00,33.4,26.0,30.09,NNE,18,1.0,8.0,75,0.00,,,0.00,weatherlink.com 1.10,2013-03-26 08:54:00,
2013-03-26 05:09:00,33.5,26.0,30.09,NE,34,0.0,4.0,75,0.00,,,0.00,weatherlink.com 1.10,2013-03-26 09:09:00,
2013-03-26 05:24:00,33.5,26.0,30.09,West,267,1.0,5.0,75,0.00,,,0.00,weatherlink.com 1.10,2013-03-26 09:24:00,
2013-03-26 05:39:00,33.5,27.0,30.09,NNE,24,0.0,5.0,76,0.00,,,0.00,weatherlink.com 1.10,2013-03-26 09:39:00,
2013-03-26 05:54:00,33.5,27.0,30.10,East,83,2.0,3.0,76,0.00,,,0.00,weatherlink.com 1.10,2013-03-26 09:54:00,
2013-03-26 06:09:00,33.5,27.0,30.10,NNE,27,0.0,5.0,76,0.00,,,0.00,weatherlink.com 1.10,2013-03-26 10:09:00,
2013-03-26 06:24:00,33.5,27.0,30.10,WSW,245,2.0,4.0,76,0.00,,,0.00,weatherlink.com 1.10,2013-03-26 10:24:00,
2013-03-26 06:39:00,33.6,26.0,30.11,North,360,1.0,5.0,75,0.00,,,0.00,weatherlink.com 1.10,2013-03-26 10:39:00,
2013-03-26 06:54:00,33.4,26.0,30.11,West,269,1.0,5.0,75,0.00,,,0.00,weatherlink.com 1.10,2013-03-26 10:54:00,
2013-03-26 07:09:00,33.3,27.0,30.11,WNW,294,0.0,4.0,76,0.00,,,0.00,weatherlink.com 1.10,2013-03-26 11:09:00,
2013-03-26 07:24:00,33.3,27.0,30.12,NNW,344,5.0,5.0,76,0.00,,,0.00,weatherlink.com 1.10,2013-03-26 11:24:00,
2013-03-26 07:39:00,33.4,27.0,30.12,NE,41,0.0,5.0,77,0.00,,,0.00,weatherlink.com 1.10,2013-03-26 11:39:00,
2013-03-26 07:54:00,33.3,27.0,30.12,NE,40,0.0,4.0,78,0.00,,,0.00,weatherlink.com 1.10,2013-03-26 11:54:00,
2013-03-26 08:09:00,33.5,28.0,30.13,WSW,252,1.0,4.0,79,0.00,,,0.00,weatherlink.com 1.10,2013-03-26 12:09:00,
2013-03-26 08:24:00,33.7,28.0,30.14,East,79,1.0,6.0,79,0.00,,,0.00,weatherlink.com 1.10,2013-03-26 12:24:00,
2013-03-26 08:39:00,34.1,28.0,30.15,ENE,71,4.0,6.0,78,0.00,,,0.00,weatherlink.com 1.10,2013-03-26 12:39:00,
2013-03-26 08:54:00,34.5,28.0,30.16,NE,53,0.0,3.0,78,0.00,,,0.00,weatherlink.com 1.10,2013-03-26 12:54:00,
2013-03-26 09:09:00,34.6,28.0,30.16,NE,39,0.0,8.0,77,0.00,,,0.00,weatherlink.com 1.10,2013-03-26 13:09:00,
2013-03-26 09:24:00,34.9,28.0,30.17,NNW,339,1.0,4.0,75,0.00,,,0.00,weatherlink.com 1.10,2013-03-26 13:24:00,
2013-03-26 09:39:00,35.1,28.0,30.18,North,8,3.0,11.0,74,0.00,,,0.00,weatherlink.com 1.10,2013-03-26 13:39:00,
2013-03-26 09:54:00,36.1,28.0,30.18,NW,313,1.0,8.0,73,0.00,,,0.00,weatherlink.com 1.10,2013-03-26 13:54:00,
2013-03-26 10:09:00,36.3,28.0,30.18,West,269,1.0,6.0,72,0.00,,,0.00,weatherlink.com 1.10,2013-03-26 14:09:00,
2013-03-26 10:24:00,36.3,28.0,30.19,North,360,0.0,7.0,72,0.00,,,0.00,weatherlink.com 1.10,2013-03-26 14:24:00,
2013-03-26 10:39:00,36.5,28.0,30.19,North,350,3.0,7.0,70,0.00,,,0.00,weatherlink.com 1.10,2013-03-26 14:39:00,
2013-03-26 10:54:00,36.8,27.0,30.20,NW,310,5.0,7.0,67,0.00,,,0.00,weatherlink.com 1.10,2013-03-26 14:54:00,
2013-03-26 11:09:00,37.6,27.0,30.20,East,94,3.0,9.0,65,0.00,,,0.00,weatherlink.com 1.10,2013-03-26 15:09:00,
2013-03-26 11:24:00,37.6,26.0,30.21,North,358,10.0,11.0,63,0.00,,,0.00,weatherlink.com 1.10,2013-03-26 15:24:00,
2013-03-26 11:40:00,38.0,25.0,30.22,ESE,114,3.0,13.0,61,0.00,,,0.00,weatherlink.com 1.10,2013-03-26 15:40:00,
2013-03-26 11:55:00,38.5,26.0,30.22,NNW,345,0.0,11.0,61,0.00,,,0.00,weatherlink.com 1.10,2013-03-26 15:55:00,
2013-03-26 12:10:00,37.7,27.0,30.22,NNE,20,2.0,13.0,65,0.00,,,0.00,weatherlink.com 1.10,2013-03-26 16:10:00,
2013-03-26 12:25:00,38.7,27.0,30.23,NNW,338,2.0,9.0,63,0.00,,,0.00,weatherlink.com 1.10,2013-03-26 16:25:00,
2013-03-26 12:40:00,39.5,26.0,30.23,SSW,201,2.0,15.0,60,0.00,,,0.00,weatherlink.com 1.10,2013-03-26 16:40:00,
2013-03-26 12:55:00,40.4,25.0,30.22,NNE,25,6.0,11.0,55,0.00,,,0.00,weatherlink.com 1.10,2013-03-26 16:55:00,
2013-03-26 13:10:00,39.5,25.0,30.23,SW,234,0.0,10.0,56,0.00,,,0.00,weatherlink.com 1.10,2013-03-26 17:10:00,
2013-03-26 13:25:00,40.6,26.0,30.22,SW,231,1.0,5.0,57,0.00,,,0.00,weatherlink.com 1.10,2013-03-26 17:25:00,
2013-03-26 13:40:00,40.2,25.0,30.22,NNE,17,0.0,7.0,56,0.00,,,0.00,weatherlink.com 1.10,2013-03-26 17:40:00,
2013-03-26 13:55:00,40.0,26.0,30.22,NE,50,0.0,7.0,58,0.00,,,0.00,weatherlink.com 1.10,2013-03-26 17:55:00,
2013-03-26 14:10:00,41.4,26.0,30.22,North,9,2.0,11.0,55,0.00,,,0.00,weatherlink.com 1.10,2013-03-26 18:10:00,
2013-03-26 14:25:00,41.9,26.0,30.22,NW,316,2.0,5.0,53,0.00,,,0.00,weatherlink.com 1.10,2013-03-26 18:25:00,
2013-03-26 14:40:00,41.4,26.0,30.23,NNE,18,0.0,8.0,54,0.00,,,0.00,weatherlink.com 1.10,2013-03-26 18:40:00,
2013-03-26 14:55:00,41.7,26.0,30.22,NE,44,1.0,8.0,55,0.00,,,0.00,weatherlink.com 1.10,2013-03-26 18:55:00,
2013-03-26 15:10:00,41.3,25.0,30.22,SSW,201,1.0,13.0,53,0.00,,,0.00,weatherlink.com 1.10,2013-03-26 19:10:00,
2013-03-26 15:25:00,40.8,26.0,30.23,WSW,248,2.0,8.0,55,0.00,,,0.00,weatherlink.com 1.10,2013-03-26 19:25:00,
2013-03-26 15:40:00,40.8,25.0,30.23,NNE,20,4.0,13.0,54,0.00,,,0.00,weatherlink.com 1.10,2013-03-26 19:40:00,
2013-03-26 15:55:00,41.5,26.0,30.22,North,9,3.0,7.0,54,0.00,,,0.00,weatherlink.com 1.10,2013-03-26 19:55:00,
2013-03-26 16:10:00,41.3,26.0,30.22,North,352,1.0,6.0,55,0.00,,,0.00,weatherlink.com 1.10,2013-03-26 20:10:00,
2013-03-26 16:40:00,40.9,27.0,30.23,SE,138,1.0,6.0,57,0.00,,,0.00,weatherlink.com 1.10,2013-03-26 20:40:00,
2013-03-26 16:55:00,41.8,27.0,30.24,West,260,1.0,7.0,55,0.00,,,0.00,weatherlink.com 1.10,2013-03-26 20:55:00,
2013-03-26 17:10:00,40.7,26.0,30.24,SW,224,0.0,14.0,57,0.00,,,0.00,weatherlink.com 1.10,2013-03-26 21:10:00,
2013-03-26 17:25:00,40.4,26.0,30.24,NE,39,2.0,9.0,56,0.00,,,0.00,weatherlink.com 1.10,2013-03-26 21:25:00,
2013-03-26 17:40:00,40.2,26.0,30.24,NNE,30,5.0,7.0,58,0.00,,,0.00,weatherlink.com 1.10,2013-03-26 21:40:00,
2013-03-26 17:55:00,40.0,26.0,30.25,North,349,1.0,10.0,58,0.00,,,0.00,weatherlink.com 1.10,2013-03-26 21:55:00,
2013-03-26 18:10:00,39.9,26.0,30.25,North,349,1.0,9.0,58,0.00,,,0.00,weatherlink.com 1.10,2013-03-26 22:10:00,
2013-03-26 18:25:00,40.0,26.0,30.25,NNE,25,1.0,9.0,57,0.00,,,0.00,weatherlink.com 1.10,2013-03-26 22:25:00,
2013-03-26 18:40:00,40.7,25.0,30.25,SSW,195,5.0,8.0,54,0.00,,,0.00,weatherlink.com 1.10,2013-03-26 22:40:00,
2013-03-26 18:55:00,39.9,25.0,30.26,North,360,5.0,9.0,56,0.00,,,0.00,weatherlink.com 1.10,2013-03-26 22:55:00,
2013-03-26 19:11:00,39.6,26.0,30.26,NNE,24,0.0,7.0,58,0.00,,,0.00,weatherlink.com 1.10,2013-03-26 23:11:00,
2013-03-26 19:25:00,39.1,26.0,30.27,West,278,2.0,7.0,60,0.00,,,0.00,weatherlink.com 1.10,2013-03-26 23:25:00,
2013-03-26 19:40:00,38.7,26.0,30.28,East,86,1.0,6.0,61,0.00,,,0.00,weatherlink.com 1.10,2013-03-26 23:40:00,
2013-03-26 19:55:00,38.4,26.0,30.28,NNE,23,2.0,7.0,62,0.00,,,0.00,weatherlink.com 1.10,2013-03-26 23:55:00,
2013-03-26 20:10:00,38.3,27.0,30.29,WNW,295,5.0,7.0,63,0.00,,,0.00,weatherlink.com 1.10,2013-03-27 00:10:00,
2013-03-26 20:25:00,38.1,26.0,30.29,NNW,327,0.0,6.0,63,0.00,,,0.00,weatherlink.com 1.10,2013-03-27 00:25:00,
2013-03-26 20:40:00,38.0,27.0,30.29,North,352,0.0,3.0,64,0.00,,,0.00,weatherlink.com 1.10,2013-03-27 00:40:00,
2013-03-26 20:55:00,37.9,26.0,30.30,SSE,159,1.0,10.0,63,0.00,,,0.00,weatherlink.com 1.10,2013-03-27 00:55:00,
2013-03-26 21:10:00,37.8,26.0,30.30,NNE,20,0.0,7.0,62,0.00,,,0.00,weatherlink.com 1.10,2013-03-27 01:10:00,
2013-03-26 21:25:00,37.7,26.0,30.31,SSE,149,4.0,8.0,62,0.00,,,0.00,weatherlink.com 1.10,2013-03-27 01:25:00,
2013-03-26 21:40:00,37.7,26.0,30.31,SE,131,0.0,7.0,63,0.00,,,0.00,weatherlink.com 1.10,2013-03-27 01:40:00,
2013-03-26 21:55:00,37.6,26.0,30.32,NNE,30,0.0,5.0,63,0.00,,,0.00,weatherlink.com 1.10,2013-03-27 01:55:00,
2013-03-26 22:10:00,37.3,25.0,30.32,WNW,297,2.0,6.0,62,0.00,,,0.00,weatherlink.com 1.10,2013-03-27 02:10:00,
2013-03-26 22:25:00,36.7,25.0,30.32,WNW,295,0.0,3.0,63,0.00,,,0.00,weatherlink.com 1.10,2013-03-27 02:25:00,
2013-03-26 22:40:00,36.1,25.0,30.33,North,359,1.0,5.0,64,0.00,,,0.00,weatherlink.com 1.10,2013-03-27 02:40:00,
2013-03-26 22:55:00,35.6,25.0,30.33,WSW,243,0.0,4.0,65,0.00,,,0.00,weatherlink.com 1.10,2013-03-27 02:55:00,
2013-03-26 23:11:00,35.3,25.0,30.33,North,351,0.0,3.0,66,0.00,,,0.00,weatherlink.com 1.10,2013-03-27 03:11:00,
2013-03-26 23:26:00,34.8,25.0,30.33,NNE,20,0.0,3.0,67,0.00,,,0.00,weatherlink.com 1.10,2013-03-27 03:26:00,
2013-03-26 23:41:00,34.4,24.0,30.33,NW,308,0.0,2.0,67,0.00,,,0.00,weatherlink.com 1.10,2013-03-27 03:41:00,
2013-03-26 23:56:00,34.0,25.0,30.34,North,9,0.0,1.0,69,0.00,,,0.00,weatherlink.com 1.10,2013-03-27 03:56:00,